Погода в Курчанской

Россия / Краснодарский край     45°13′34″N   37°33′18″E
темп.,
°C
ветер,
м/с
пор.,
м/с
влажн.,
%
обл.,
%
осадки,
мм/ч
давл.,
гПа
погр.,
м
14 июня, пн
пн1400:00+16ю389426 0.0 1012161
03:00+16ююв2293100 0.0 101133
06:00+17вюв349083 0.0 101197
09:00+22в34625 0.0 1011610
12:00+26в455153 0.0 10111296
15:00+27с5553100 0.0 10101015
18:00+25св4865100 0.2 1009471
21:00+21св512796 0.2 1009231
15 июня, вт
вт1500:00+19св4117980 0.1 1008220
03:00+17всв41092100 2.8 1008235
06:00+18всв51291100 2.5 1008370
09:00+20в588696 3.1 1009356
12:00+26ю45565 1.6 10081297
15:00+25юз66525 1.6 1009809
18:00+23юз67640 0.1 1009555
21:00+18юз35920 0.1 1010110
16 июня, ср
ср1600:00+17зюз23900 0.0 100939
03:00+17зюз228995 0.0 100938
06:00+18зюз1285100 0.0 1009107
09:00+23ссз427250 0.9 1008849
12:00+21сз338099 1.3 1009487
15:00+24зсз557288 1.5 1009978
18:00+23зсз557185 0.3 1009741
21:00+19зсз34850 0.3 101087
17 июня, чт
чт1700:00+18зсз34870 0.0 100969
03:00+17зюз1289100 0.0 101057
06:00+18юз2290100 1.4 1010106
09:00+20зсз2387100 6.1 1011241
12:00+20сз4585100 1.4 1013450
15:00+21ссз227277 2.3 1013416
18:00+23зюз4572100 0.1 1013677
21:00+19юз3586100 0.1 1015101
18 июня, пт
пт1800:00+18юз358696 0.0 101594
03:00+17юз23918 0.0 101657
06:00+18ююз11881 0.0 101662
09:00+22ссв22700 0.0 1016765
12:00+25с436014 0.0 10171240
15:00+24с56700 0.1 1016633
18:00+23всв67774 1.6 1016828
21:00+19св48931 1.6 1017243